Voltar ao catálogo

STARLINK-5537

AtivoComunicaçõesVLEO
NORAD 55384·PAYLOAD·🇺🇸 United States

Lançado Jan 26, 2023 de Cape Canaveral Space Force Station

Loading…

Próximas Passagens (próximas 24 horas)

TLE

AtualizadoSource: CelesTrak SupGP

Época: Sep 14, 2026, 21:04 UTC

1 55384C 23013BF  26257.87826389 -.00051903  00000+0 -18797-2 0  2577
2 55384  43.0045 329.7859 0002000 283.8672 156.1407 15.27607412    14

Acompanhe STARLINK-5537 em tempo real com AllMySat

Download on the App Store